Regional Weather Roundup
Issued by NWS

Home | Current Version | Previous Version | Text Only | Print | Product List | Glossary Off
Versions: 1 2 3 4 5 6 7 8 9 10 11 12 13 14 15 16 17 18 19 20 21 22 23 24 25 26 27 28 29 30 31 32 33 34 35 36 37 38 39 40 41 42 43 44 45 46 47 48 49 50

673
ASUS43 KFSD 231310
RWRSD

WEATHER ROUNDUP FOR SOUTH DAKOTA
NATIONAL WEATHER SERVICE SIOUX FALLS SD
700 AM CST MON JAN 23 2017

NOTE: "FAIR" INDICATES FEW OR NO CLOUDS BELOW 12,000 FEET WITH NO
SIGNIFICANT WEATHER AND/OR OBSTRUCTIONS TO VISIBILITY.


SDZ001>005-009-010-012>017-231400-
NORTHWEST AND NORTH CENTRAL SOUTH DAKOTA

CITY           SKY/WX    TMP DP  RH WIND       PRES   REMARKS
BUFFALO          N/A     19  13  77 CALM      29.65S
FAITH            N/A     24  22  91 E6        29.75F WCI  17
MOBRIDGE       CLOUDY    29  23  78 CALM      29.79R
$$

SDZ012>016-024>037-041>051-057-063-072>074-231400-
SOUTHWEST AND SOUTH CENTRAL SOUTH DAKOTA

CITY           SKY/WX    TMP DP  RH WIND       PRES   REMARKS
RAPID CTY ARPT CLOUDY    21  20  96 SE7       29.67F WCI  12
PIERRE         CLOUDY    26  23  88 S3        29.82R
CUSTER         CLOUDY    25  12  58 CALM      29.60F
ELLSWORTH AFB  CLOUDY    23  23 100 SE5       29.66F WCI  17
PHILIP         FOG       22  21  96 E9        29.76F VSB 1   WCI  12
PINE RIDGE     CLOUDY    33  21  61 S10       29.67F WCI  25
SPEARFISH      CLOUDY    21  18  86 CALM      29.64F
WINNER         CLOUDY    24  22  91 SE9       29.81F WCI  14
$$

SDZ004>011-016>023-039-040-231400-
NORTHEAST SOUTH DAKOTA

CITY           SKY/WX    TMP DP  RH WIND       PRES   REMARKS
ABERDEEN       CLOUDY    30  23  75 W3        29.83R
WATERTOWN      CLOUDY    29  25  85 NW3       29.80S
BROOKINGS      CLOUDY    29  27  92 NW6       29.81S WCI  23
SISSETON         N/A     33  28  81 N8        29.80F WCI  26
$$

SDZ017-020-022-023-036>040-048>070-231400-
SOUTHEAST SOUTH DAKOTA

CITY           SKY/WX    TMP DP  RH WIND       PRES   REMARKS
SIOUX FALLS    FLURRIES  30  28  92 CALM      29.83F
HURON          CLOUDY    29  25  85 W6        29.84S WCI  23
CHAMBERLAIN    CLOUDY    30  27  90 CALM      29.84R
MITCHELL       CLOUDY    30  26  85 NW5       29.87R WCI  25
YANKTON        CLOUDY    30  23  74 SW3       29.87R
$$

ABBREVIATIONS USED IN REMARKS
   TC - TEMPERATURE IN CELSIUS
  WCI - WIND CHILL INDEX
   HX - HEAT INDEX
  VSB - VISIBILITY





USA.gov is the U.S. government's official web portal to all federal, state and local government web resources and services.